Snowfall_Accumulation
nan nan nan nan nan nan nan 0.0 0.1 0.0 0.0 0.1 0.0 0.1 0.0 nan 0.0 0.0 0.0 0.0 0.0 0.0 0.0 0.0 0.1 0.0 0.0 0.0 0.0 0.0 0.0 0.0 0.6 0.0 0.0 0.0 0.0 0.0 0.0 1.8 0.6 0.9 1.1 6.6
nan nan nan nan nan nan 0.0 0.0 0.0 0.0 0.0 0.3 0.0 0.0 0.0 0.0 0.0 0.0 0.0 0.0 0.0 0.0 0.0 0.0 0.0 0.0 0.0 0.0 0.0 0.0 0.0 0.1 0.3 0.2 0.2 0.0 0.0 0.0 0.0 0.0 0.1 1.1 5.3 6.7
nan nan nan nan nan nan 0.0 0.0 0.1 0.0 0.0 0.0 0.0 0.0 0.0 0.0 0.0 0.0 0.0 0.0 0.0 0.0 0.0 0.0 0.0 0.0 0.0 0.0 0.0 nan nan 0.0 0.0 0.2 0.0 0.0 0.0 0.0 0.0 0.0 3.4 0.5 4.9 1.8
nan nan nan nan nan nan 0.0 0.0 0.0 0.0 0.2 0.0 0.0 0.0 0.0 0.0 0.0 0.0 0.0 0.0 0.0 0.0 0.0 0.0 0.0 0.0 0.0 0.0 nan 0.0 0.0 0.0 0.0 0.0 0.0 0.0 0.0 0.0 0.0 2.5 0.0 2.2 1.0 1.9
nan nan nan nan nan nan 0.0 0.0 0.0 0.0 0.0 0.0 0.0 0.0 0.1 0.1 0.0 0.3 0.1 0.0 0.0 0.0 0.0 0.0 0.0 0.0 0.0 0.0 0.0 0.0 0.0 0.0 0.0 0.0 0.0 0.0 0.0 0.0 0.0 0.0 0.0 0.0 0.0 0.0
nan nan nan nan nan nan 0.0 0.0 0.0 0.0 nan 0.0 0.0 0.0 0.0 0.0 0.0 0.0 0.0 0.0 0.1 0.1 0.0 0.0 0.0 0.0 0.0 0.0 0.0 0.0 0.0 0.0 0.0 0.7 0.0 0.0 0.1 0.0 0.0 0.0 0.0 0.0 0.1 0.0
nan nan nan nan nan nan 0.0 0.0 0.0 0.0 0.2 0.1 0.0 0.0 0.0 0.1 0.0 0.3 0.0 0.0 0.1 0.0 0.0 0.0 0.0 0.0 0.0 0.0 0.0 0.0 0.0 0.0 0.0 0.7 0.0 1.2 0.0 0.0 0.0 0.0 0.0 0.0 0.0 0.0
nan nan nan nan nan nan 0.0 0.0 0.1 0.0 0.4 0.0 0.0 0.0 0.0 0.0 0.0 0.0 0.0 0.0 0.0 0.0 0.0 0.5 0.3 0.0 0.0 0.0 0.0 0.0 0.0 0.0 0.2 0.8 0.7 0.0 0.0 0.0 0.0 0.0 0.0 0.0 0.0 0.0
nan nan nan nan nan nan 0.0 0.0 0.0 0.2 1.2 0.0 0.1 0.1 0.0 0.4 0.4 0.0 0.0 0.0 0.0 0.0 0.0 1.0 1.4 0.4 0.0 0.0 0.0 0.0 0.0 0.0 0.1 0.3 0.4 0.7 0.0 0.0 0.0 0.0 0.0 0.0 0.0 0.0
nan nan nan nan nan nan 0.0 0.0 0.0 0.3 1.4 0.0 0.0 0.0 0.2 0.0 0.2 0.5 0.0 0.1 0.0 0.0 0.3 1.5 1.3 0.5 0.0 0.0 0.0 0.0 0.0 0.1 0.5 0.4 0.7 0.0 0.0 0.0 0.0 0.0 0.0 0.0 0.0 0.0
nan nan nan nan nan nan 0.0 0.0 0.0 0.3 1.8 0.2 0.2 0.1 0.4 0.2 0.1 0.7 0.2 0.2 0.3 0.3 1.7 1.4 0.5 0.3 0.0 0.0 0.0 0.0 0.0 0.3 0.6 0.5 0.3 3.2 0.0 0.0 0.0 0.0 0.0 0.0 0.0 0.0
nan nan nan nan nan nan nan 0.0 0.0 0.0 1.3 0.2 0.0 0.0 0.0 0.0 0.0 0.7 0.4 0.6 0.7 0.4 1.9 2.6 1.8 2.0 0.5 0.1 0.1 0.0 0.1 0.1 0.1 0.0 0.1 0.0 0.0 0.0 0.0 0.0 0.0 0.0 0.0 0.1
nan nan nan nan nan nan nan 0.0 0.0 0.0 0.2 0.0 0.0 0.0 0.0 0.0 0.0 0.0 2.1 0.0 0.1 0.8 2.3 2.8 1.7 2.1 1.2 1.2 1.1 0.3 0.5 0.4 0.4 0.2 0.1 0.0 0.0 0.1 0.1 0.0 0.1 0.1 0.0 0.0
nan nan nan nan nan nan nan 0.0 0.0 0.1 0.1 1.2 0.0 0.0 0.0 0.0 0.0 0.0 0.0 0.3 0.0 0.5 0.6 4.4 3.1 3.4 0.5 1.8 2.1 0.8 2.1 1.8 2.5 1.7 2.1 1.7 2.0 0.8 0.5 0.4 0.1 0.0 0.0 0.0
nan nan nan nan nan nan nan 0.0 0.0 0.0 0.4 1.7 0.0 0.0 0.0 0.0 0.0 0.0 0.0 0.1 0.3 1.2 4.1 6.0 8.1 1.4 3.6 2.6 4.3 9.6 6.4 4.4 5.0 5.8 2.5 1.7 2.8 1.6 0.5 0.6 0.4 0.3 0.2 0.2
nan nan nan nan nan nan 0.0 0.0 0.0 0.0 0.0 3.6 0.9 0.0 0.0 0.0 0.3 0.2 0.2 0.0 0.2 1.9 4.4 3.7 5.7 2.6 2.0 13.0 10.8 6.1 3.6 3.4 4.2 6.2 5.9 4.6 4.3 2.8 2.8 1.7 1.7 1.1 0.7 0.5
nan nan nan nan nan 0.0 0.0 0.0 0.0 nan 0.0 1.4 2.1 0.2 0.2 0.0 0.0 0.1 0.4 0.5 4.7 4.9 6.4 6.2 5.9 4.6 2.3 10.7 11.0 7.5 5.6 5.1 5.9 5.6 3.8 5.4 3.4 7.5 4.6 2.8 2.7 1.6 1.4 1.0
nan nan nan nan nan nan 0.1 0.0 nan nan 0.1 0.5 8.1 1.5 0.1 0.0 0.9 1.8 1.1 4.2 5.5 4.4 8.7 6.1 6.1 3.8 4.6 15.0 11.0 7.0 5.5 3.7 2.9 4.6 3.5 5.5 4.0 2.6 2.8 1.4 1.3 1.2 0.9 0.5
nan nan nan 0.0 0.0 0.1 0.1 nan nan 0.0 0.6 7.9 5.8 3.7 4.0 0.0 0.3 0.8 2.1 2.7 5.0 3.7 5.3 7.1 1.8 6.5 12.9 13.6 7.8 5.4 5.5 4.9 5.5 3.7 2.9 2.4 2.4 1.8 1.1 0.6 0.4 0.2 0.2 0.0
nan 0.0 0.0 0.6 0.1 nan nan 0.1 0.5 1.0 2.4 2.4 5.3 0.5 3.2 0.1 0.0 1.4 0.8 7.0 7.2 12.4 6.3 1.9 6.9 17.2 11.3 9.4 6.7 4.5 3.9 3.8 2.5 2.0 1.5 0.8 0.6 0.4 0.4 0.2 0.1 0.1 0.0 0.0
0.0 0.3 0.5 0.0 nan 0.0 0.1 2.7 5.6 4.2 9.4 2.3 2.1 0.7 2.0 0.7 4.9 4.4 4.6 11.9 9.1 14.3 5.1 3.7 9.2 11.7 10.6 5.8 4.1 2.5 1.8 1.1 0.7 0.3 0.4 0.1 0.1 0.1 0.0 0.0 0.0 0.0 0.0 0.0
0.0 0.0 0.0 0.0 0.8 4.0 7.2 7.3 3.9 7.6 8.6 3.4 2.7 0.9 1.0 1.2 0.4 5.1 10.1 12.5 10.7 16.2 2.3 9.0 10.9 12.6 4.8 2.4 2.6 2.3 0.1 0.1 0.0 0.0 0.0 0.0 0.0 0.0 0.0 0.0 0.0 0.0 0.0 0.0
0.0 0.4 7.6 6.9 10.3 38.3 15.6 11.4 13.5 12.8 2.1 2.2 2.4 3.5 1.4 2.0 0.7 7.9 7.8 17.4 15.4 1.9 13.3 7.8 8.4 4.4 2.0 1.3 0.4 0.0 0.0 0.0 0.0 0.0 0.0 0.0 0.0 0.0 0.0 0.0 0.0 0.0 0.0 0.0
5.2 18.7 51.0 15.8 14.2 4.1 6.5 4.4 3.5 1.9 2.1 2.5 2.7 4.6 3.4 3.9 9.9 6.3 16.6 4.8 5.7 17.2 13.2 11.8 4.7 2.5 1.1 0.1 0.0 0.0 0.1 0.0 0.0 0.0 0.0 0.0 0.0 0.0 0.0 0.0 0.0 0.0 0.0 0.0
21.5 17.4 32.9 13.4 2.5 2.2 3.7 1.5 1.4 1.2 1.0 1.5 3.3 3.7 2.7 7.8 12.0 3.6 5.6 12.6 12.3 6.9 8.9 4.6 2.1 0.6 0.2 0.1 0.1 0.2 0.1 0.4 1.0 0.8 1.2 1.1 0.7 0.4 0.3 0.1 0.0 0.0 0.0 0.0
19.8 21.1 13.7 1.1 4.3 4.7 3.4 3.6 2.7 0.9 1.3 1.4 3.1 9.6 15.3 11.5 8.9 13.7 10.2 13.1 8.4 6.5 4.1 2.5 1.5 0.8 0.5 0.3 0.1 0.1 0.1 0.1 0.1 0.0 0.1 0.1 0.1 0.2 0.2 0.1 0.2 0.2 0.2 0.6
30.1 21.0 0.7 1.8 2.7 3.2 1.3 0.7 0.7 0.5 2.1 7.6 8.4 18.3 11.2 7.7 15.1 11.8 6.6 13.6 5.0 2.6 1.3 1.0 0.4 0.9 0.6 1.0 1.0 0.7 0.4 0.2 0.2 0.1 0.1 0.1 0.0 0.1 0.3 0.3 0.1 0.2 0.2 1.9
Water_Equivalent
nan nan nan nan nan nan nan 0.00 0.03 0.00 0.00 0.05 0.00 0.05 0.00 nan 0.00 0.00 0.00 0.00 0.00 0.00 0.00 0.00 0.02 0.01 0.01 0.00 0.00 0.00 0.00 0.00 0.19 0.00 0.00 0.00 0.00 0.00 0.00 0.51 0.14 0.29 0.29 1.26
nan nan nan nan nan nan 0.00 0.00 0.00 0.00 0.00 0.11 0.01 0.00 0.00 0.00 0.00 0.00 0.00 0.00 0.00 0.00 0.00 0.01 0.00 0.00 0.00 0.00 0.00 0.00 0.00 0.03 0.08 0.06 0.05 0.00 0.00 0.00 0.00 0.00 0.04 0.28 1.08 1.47
nan nan nan nan nan nan 0.00 0.00 0.05 0.00 0.00 0.00 0.00 0.00 0.00 0.00 0.00 0.00 0.00 0.00 0.00 0.00 0.00 0.00 0.00 0.00 0.00 0.00 0.00 nan nan 0.00 0.00 0.06 0.00 0.01 0.01 0.00 0.00 0.00 0.81 0.14 1.13 0.47
nan nan nan nan nan nan 0.00 0.00 0.02 0.00 0.08 0.00 0.00 0.01 0.00 0.00 0.00 0.00 0.00 0.00 0.00 0.00 0.00 0.00 0.00 0.00 0.00 0.00 nan 0.00 0.00 0.00 0.00 0.00 0.00 0.00 0.00 0.00 0.00 0.57 0.01 0.53 0.26 0.48
nan nan nan nan nan nan 0.00 0.00 0.00 0.00 0.00 0.00 0.00 0.00 0.02 0.01 0.00 0.04 0.02 0.00 0.00 0.00 0.00 0.00 0.00 0.00 0.00 0.00 0.00 0.01 0.00 0.00 0.00 0.00 0.00 0.00 0.00 0.00 0.00 0.00 0.00 0.00 0.00 0.00
nan nan nan nan nan nan 0.00 0.00 0.00 0.00 nan 0.00 0.01 0.00 0.00 0.00 0.00 0.00 0.00 0.00 0.01 0.01 0.00 0.00 0.00 0.00 0.00 0.00 0.00 0.00 0.00 0.02 0.01 0.17 0.00 0.00 0.05 0.00 0.00 0.00 0.00 0.00 0.03 0.00
nan nan nan nan nan nan 0.00 0.00 0.00 0.00 0.03 0.01 0.00 0.00 0.00 0.01 0.00 0.04 0.00 0.00 0.01 0.00 0.00 0.00 0.00 0.00 0.00 0.00 0.00 0.00 0.00 0.00 0.00 0.19 0.01 0.27 0.01 0.00 0.00 0.00 0.00 0.00 0.00 0.00
nan nan nan nan nan nan 0.00 0.00 0.02 0.01 0.07 0.00 0.00 0.00 0.00 0.00 0.00 0.00 0.00 0.00 0.00 0.00 0.00 0.09 0.05 0.00 0.00 0.00 0.00 0.00 0.00 0.00 0.05 0.20 0.19 0.00 0.00 0.00 0.00 0.00 0.00 0.00 0.00 0.00
nan nan nan nan nan nan 0.00 0.00 0.00 0.03 0.18 0.00 0.01 0.01 0.00 0.06 0.05 0.00 0.00 0.00 0.00 0.00 0.01 0.15 0.17 0.11 0.00 0.00 0.00 0.00 0.00 0.01 0.01 0.09 0.09 0.16 0.00 0.00 0.00 0.00 0.01 0.00 0.00 0.00
nan nan nan nan nan nan 0.00 0.00 0.00 0.04 0.20 0.00 0.00 0.00 0.04 0.00 0.03 0.07 0.00 0.01 0.00 0.00 0.04 0.22 0.21 0.05 0.00 0.00 0.00 0.00 0.00 0.02 0.10 0.08 0.14 0.01 0.00 0.00 0.00 0.01 0.00 0.00 0.00 0.00
nan nan nan nan nan nan 0.00 0.00 0.00 0.05 0.26 0.03 0.03 0.02 0.06 0.03 0.02 0.10 0.03 0.04 0.04 0.05 0.23 0.20 0.06 0.04 0.00 0.00 0.00 0.00 0.00 0.07 0.13 0.09 0.07 0.62 0.00 0.00 0.00 0.00 0.00 0.00 0.00 0.00
nan nan nan nan nan nan nan 0.00 0.00 0.00 0.23 0.03 0.00 0.00 0.00 0.00 0.00 0.11 0.07 0.11 0.10 0.06 0.29 0.34 0.23 0.25 0.07 0.01 0.02 0.00 0.01 0.01 0.02 0.01 0.01 0.00 0.00 0.00 0.00 0.00 0.00 0.01 0.01 0.02
nan nan nan nan nan nan nan 0.00 0.00 0.00 0.03 0.00 0.00 0.00 0.00 0.00 0.00 0.00 0.33 0.00 0.02 0.13 0.45 0.38 0.26 0.29 0.18 0.14 0.11 0.03 0.05 0.04 0.07 0.03 0.01 0.00 0.00 0.03 0.01 0.01 0.03 0.02 0.00 0.00
nan nan nan nan nan nan nan 0.00 0.00 0.01 0.01 0.16 0.00 0.00 0.00 0.00 0.00 0.00 0.00 0.06 0.01 0.10 0.11 0.69 0.55 0.58 0.09 0.28 0.25 0.08 0.19 0.18 0.27 0.26 0.35 0.31 0.38 0.18 0.11 0.08 0.01 0.00 0.00 0.00
nan nan nan nan nan nan nan 0.00 0.00 0.00 0.06 0.28 0.00 0.00 0.00 0.00 0.00 0.00 0.00 0.01 0.06 0.22 0.75 1.06 1.25 0.25 0.57 0.38 0.56 0.95 0.73 0.51 0.59 0.67 0.36 0.25 0.42 0.30 0.11 0.10 0.06 0.05 0.04 0.04
nan nan nan nan nan nan 0.00 0.00 0.00 0.00 0.00 0.56 0.27 0.00 0.00 0.01 0.05 0.02 0.02 0.00 0.05 0.35 0.84 0.71 1.02 0.45 0.33 1.79 1.09 0.70 0.46 0.44 0.58 0.77 0.82 0.64 0.61 0.40 0.42 0.25 0.24 0.16 0.10 0.07
nan nan nan nan nan 0.00 0.00 0.01 0.00 nan 0.00 0.24 0.64 0.07 0.03 0.01 0.00 0.02 0.08 0.08 0.76 0.77 1.07 0.97 0.88 0.60 0.31 1.44 1.18 0.83 0.64 0.62 0.73 0.77 0.51 0.62 0.42 0.87 0.59 0.39 0.41 0.25 0.21 0.13
nan nan nan nan nan nan 0.03 0.00 nan nan 0.01 0.12 2.45 0.31 0.01 0.00 0.15 0.27 0.24 0.67 0.95 0.62 1.26 0.90 0.80 0.54 0.62 1.78 1.15 0.79 0.65 0.45 0.34 0.55 0.43 0.67 0.55 0.37 0.40 0.18 0.17 0.14 0.10 0.06
nan nan nan 0.00 0.00 0.02 0.02 nan nan 0.00 0.12 1.44 1.24 0.79 1.17 0.00 0.07 0.14 0.30 0.40 0.71 0.49 0.61 0.77 0.25 0.67 1.46 1.29 0.79 0.56 0.59 0.52 0.65 0.51 0.40 0.31 0.29 0.21 0.12 0.07 0.05 0.03 0.02 0.00
nan 0.00 0.00 0.23 0.01 nan nan 0.02 0.13 0.25 0.35 0.51 0.93 0.08 0.52 0.02 0.01 0.23 0.15 1.05 1.09 2.67 0.71 0.25 0.89 1.52 1.30 1.11 0.77 0.51 0.48 0.50 0.33 0.25 0.16 0.09 0.07 0.05 0.04 0.03 0.01 0.01 0.00 0.00
0.00 0.12 0.19 0.00 nan 0.00 0.02 0.80 1.24 0.77 1.60 0.37 0.34 0.12 0.30 0.13 0.86 0.81 0.69 2.03 1.47 2.46 0.58 0.58 1.20 1.09 1.06 0.67 0.48 0.31 0.23 0.13 0.08 0.03 0.04 0.01 0.02 0.01 0.00 0.00 0.00 0.00 0.00 0.00
0.00 0.00 0.00 0.00 0.30 1.29 1.72 1.67 1.00 1.31 1.44 0.55 0.48 0.22 0.18 0.21 0.06 0.86 1.87 1.99 1.91 2.00 0.27 1.44 1.30 1.17 0.50 0.27 0.32 0.30 0.01 0.01 0.01 0.00 0.00 0.00 0.00 0.00 0.00 0.00 0.00 0.00 0.00 0.00
0.00 0.17 2.53 1.83 2.51 6.35 2.59 1.66 2.48 2.33 0.54 0.61 0.59 0.85 0.27 0.43 0.19 1.57 1.40 2.85 2.16 0.24 2.12 0.73 0.73 0.46 0.22 0.13 0.05 0.01 0.00 0.00 0.00 0.00 0.00 0.00 0.00 0.00 0.00 0.00 0.00 0.00 0.00 0.00
1.30 5.08 9.30 2.88 2.48 0.68 1.03 0.68 0.69 0.37 0.62 0.58 0.54 1.04 0.68 0.69 1.71 1.01 2.87 0.69 0.86 2.32 1.66 1.13 0.48 0.25 0.10 0.01 0.01 0.01 0.02 0.01 0.02 0.00 0.00 0.00 0.00 0.00 0.00 0.00 0.00 0.00 0.00 0.00
5.39 4.06 5.41 2.34 0.41 0.54 0.76 0.51 0.46 0.33 0.22 0.37 0.72 0.87 0.52 1.68 2.16 0.60 1.13 1.80 1.72 0.74 0.90 0.60 0.27 0.06 0.03 0.03 0.03 0.03 0.03 0.09 0.25 0.24 0.33 0.30 0.19 0.10 0.08 0.02 0.01 0.00 0.00 0.00
5.31 4.88 2.56 0.18 0.96 1.22 0.94 1.20 0.84 0.28 0.27 0.34 0.78 1.87 2.43 1.89 1.48 2.04 1.50 1.86 1.00 0.81 0.63 0.46 0.33 0.19 0.13 0.08 0.02 0.02 0.01 0.02 0.01 0.01 0.02 0.02 0.02 0.06 0.06 0.04 0.05 0.05 0.06 0.13
7.33 4.25 0.12 0.36 0.63 0.65 0.27 0.20 0.19 0.09 0.51 1.55 1.55 2.53 1.60 1.36 2.15 1.61 1.18 1.98 0.67 0.43 0.25 0.21 0.08 0.19 0.13 0.24 0.21 0.16 0.08 0.05 0.03 0.02 0.01 0.02 0.01 0.02 0.05 0.04 0.02 0.04 0.05 0.33
SL_Ratio
nan nan nan nan nan nan nan nan 2.5 nan nan 2.5 nan 2.5 nan nan nan nan nan nan nan nan nan 2.5 3.1 2.6 2.5 nan nan nan nan 3.0 3.1 0.0 nan nan 5.0 nan nan 3.6 4.2 3.2 3.8 5.3
nan nan nan nan nan nan nan nan nan nan nan 2.6 2.4 nan nan nan nan nan nan nan nan nan nan 3.2 nan nan nan nan nan nan nan 2.8 3.3 3.4 3.2 nan nan nan nan nan 2.7 4.0 4.9 4.6
nan nan nan nan nan nan nan nan 2.5 nan nan nan nan nan nan nan nan nan nan nan nan nan nan nan nan nan nan nan nan nan nan nan nan 3.1 3.8 2.6 3.2 nan nan nan 4.1 3.9 4.3 3.8
nan nan nan nan nan nan nan nan 2.4 2.0 2.5 nan nan 5.6 5.0 6.7 nan nan nan nan nan nan nan nan nan nan nan nan nan nan nan nan nan nan nan nan nan nan 0.0 4.4 3.3 4.2 3.8 4.0
nan nan nan nan nan nan nan nan nan nan nan nan 10.0 5.7 5.9 6.3 nan 6.3 6.3 6.2 nan nan nan nan nan nan nan nan nan 2.5 nan 3.8 nan nan nan nan nan nan nan nan nan nan nan nan
nan nan nan nan nan nan nan nan nan nan nan 8.0 6.2 0.0 0.0 10.0 5.0 nan nan nan 6.3 6.4 nan nan nan nan nan nan nan nan 0.0 3.0 2.9 3.8 nan nan 3.2 nan nan nan nan nan 3.2 nan
nan nan nan nan nan nan nan nan nan 6.7 6.3 7.6 6.9 7.0 6.7 6.7 5.0 6.5 10.0 nan 6.5 6.7 nan nan nan nan nan nan nan nan 7.5 6.3 0.0 3.5 3.0 4.3 3.5 nan nan nan nan nan nan nan
nan nan nan nan nan nan nan nan 6.4 7.2 6.0 10.0 nan nan 5.0 nan nan nan 0.0 nan nan nan nan 6.3 7.1 5.7 10.0 nan nan nan nan 5.0 3.4 3.7 4.0 nan nan nan nan nan nan nan nan nan
nan nan nan nan nan nan nan nan nan 6.2 6.6 6.0 6.2 6.7 5.0 7.2 6.8 5.8 nan nan nan nan 6.2 6.5 8.5 4.2 5.0 10.0 0.0 nan nan 5.0 5.6 3.2 4.6 4.2 nan nan nan nan 3.3 nan nan nan
nan nan nan nan nan nan nan nan nan 5.9 7.1 0.0 5.0 6.3 5.9 6.7 6.4 7.0 nan 6.3 6.7 nan 6.5 6.5 6.5 8.6 10.0 7.5 10.0 5.7 0.0 3.8 5.0 4.5 4.8 3.0 nan nan nan 4.6 4.0 nan nan nan
nan nan nan nan nan nan nan nan nan 5.6 6.8 7.1 6.3 5.4 6.2 6.1 6.1 6.7 6.0 5.4 6.5 6.1 7.2 7.1 7.7 7.9 0.0 10.0 nan nan 4.5 4.0 4.2 5.0 4.8 5.1 nan nan 5.0 nan nan nan nan nan
nan nan nan nan nan nan nan nan nan nan 5.6 7.1 6.7 6.7 nan 5.0 5.0 5.9 5.9 6.0 6.7 6.4 6.5 7.8 8.1 8.1 7.7 8.0 4.2 5.0 4.4 6.4 7.1 5.7 5.4 nan nan nan nan nan nan 4.1 4.0 4.1
nan nan nan nan nan nan nan 5.0 5.0 5.0 5.9 nan 5.0 nan nan nan nan nan 6.4 5.0 4.9 5.8 5.1 7.3 6.7 7.3 6.8 8.7 9.3 8.3 9.4 9.4 6.7 6.6 5.6 nan 4.3 4.0 4.1 4.2 4.1 4.0 nan nan
nan nan nan nan nan nan nan nan nan 5.1 6.9 7.4 nan nan nan nan nan nan 3.8 5.2 4.1 5.0 5.3 6.4 5.6 5.8 5.8 6.5 8.5 10.9 10.6 9.9 9.3 6.5 6.2 5.5 5.3 4.6 4.8 4.9 4.8 3.3 nan nan
nan nan nan nan nan nan nan nan nan nan 6.8 6.1 6.0 nan nan nan nan nan nan 5.0 5.0 5.6 5.5 5.7 6.5 5.6 6.3 6.7 7.7 10.2 8.7 8.6 8.5 8.7 6.9 6.7 6.6 5.4 4.8 5.3 5.8 5.3 5.7 5.9
nan nan nan nan nan nan nan nan nan nan nan 6.4 3.4 nan nan 5.8 6.1 6.4 6.8 5.0 5.1 5.3 5.3 5.3 5.6 5.7 5.9 7.3 10.0 8.8 7.8 7.8 7.3 8.0 7.1 7.3 7.1 7.0 6.8 6.9 6.9 6.9 7.0 6.8
nan nan nan nan nan nan 6.0 7.4 6.4 nan nan 5.9 3.2 2.6 6.2 5.5 5.7 4.7 5.0 5.8 6.2 6.3 6.0 6.4 6.7 7.6 7.4 7.4 9.4 9.0 8.6 8.2 8.1 7.3 7.4 8.7 8.1 8.6 7.7 7.3 6.6 6.4 6.7 7.3
nan nan nan nan nan nan 5.5 5.0 nan nan 5.5 4.5 3.3 4.7 7.6 nan 5.8 6.6 4.4 6.2 5.7 7.0 6.9 6.8 7.6 7.0 7.4 8.4 9.5 8.8 8.3 8.4 8.5 8.5 8.0 8.3 7.4 6.9 7.1 7.7 7.8 8.5 9.0 8.5
nan nan nan nan nan 6.4 6.8 nan nan nan 4.9 5.5 4.7 4.7 3.4 5.5 4.9 5.8 7.1 6.7 7.0 7.5 8.7 9.2 7.3 9.7 8.8 10.5 9.9 9.5 9.4 9.4 8.5 7.2 7.3 7.7 8.2 8.8 9.0 9.1 8.9 7.9 7.7 6.3
nan nan 3.3 2.6 6.8 nan nan 5.7 3.8 4.3 6.7 4.6 5.7 5.8 6.1 5.0 4.8 5.9 5.4 6.7 6.6 4.6 8.9 7.6 7.8 11.4 8.7 8.5 8.7 8.8 8.2 7.5 7.5 8.0 9.3 9.2 9.2 9.0 9.2 7.9 7.4 8.3 10.0 nan
nan 2.5 2.5 nan nan nan 2.8 3.4 4.5 5.4 5.8 6.0 6.2 5.8 6.8 5.7 5.7 5.5 6.6 5.9 6.2 5.8 8.7 6.4 7.6 10.7 10.0 8.7 8.6 8.0 7.8 8.0 8.4 9.3 9.6 8.3 8.0 6.9 10.0 10.0 nan nan nan nan
5.0 4.5 nan nan 2.5 3.1 4.2 4.4 3.9 5.8 6.0 6.2 5.6 4.0 5.6 5.6 5.6 5.9 5.4 6.3 5.6 8.1 8.8 6.3 8.4 10.7 9.6 9.0 8.2 7.6 8.6 6.1 6.3 6.0 6.0 nan nan nan nan nan nan nan nan nan
nan 2.5 3.0 3.8 4.1 6.0 6.0 6.9 5.4 5.5 4.0 3.5 4.0 4.2 5.3 4.7 3.9 5.1 5.6 6.1 7.1 7.7 6.3 10.6 11.5 9.7 9.1 10.1 9.4 8.8 5.6 10.0 nan nan nan nan nan nan nan nan nan nan nan nan
4.0 3.7 5.5 5.5 5.7 5.9 6.3 6.5 5.1 5.0 3.4 4.3 5.1 4.4 5.0 5.7 5.8 6.2 5.8 6.9 6.6 7.4 8.0 10.4 9.8 9.9 11.4 8.8 4.1 4.8 4.2 3.8 3.0 3.0 4.0 3.3 10.0 nan nan 10.0 10.0 10.0 10.0 nan
4.0 4.3 6.1 5.7 6.2 4.0 4.8 3.0 3.0 3.7 4.5 4.0 4.7 4.3 5.2 4.6 5.6 6.1 5.0 7.0 7.1 9.2 9.8 7.7 8.0 10.0 7.7 4.0 4.2 4.8 4.1 4.0 3.8 3.5 3.8 3.7 3.9 3.7 3.6 3.0 2.5 2.5 3.3 3.3
3.7 4.3 5.4 6.3 4.5 3.9 3.6 3.0 3.3 3.4 4.8 4.0 3.9 5.1 6.3 6.1 6.1 6.7 6.8 7.0 8.4 7.9 6.5 5.3 4.4 4.4 3.9 3.8 4.2 5.5 5.5 5.0 4.8 4.2 4.2 4.1 4.2 4.2 4.3 3.6 3.8 3.5 3.5 4.5
4.1 4.9 6.0 5.0 4.3 4.9 4.6 3.5 3.7 5.8 4.1 4.9 5.4 7.2 7.0 5.6 7.0 7.3 5.6 6.9 7.4 6.0 5.3 4.8 5.3 4.9 4.5 4.3 4.7 4.6 4.6 4.8 5.0 4.8 4.9 5.1 4.3 4.6 5.6 6.1 4.0 4.4 4.3 5.7